Regional Weather Roundup
Issued by NWS

Home | Current Version | Previous Version | Text Only | Print | Product List | Glossary On
Versions: 1 2 3 4 5 6 7 8 9 10 11 12 13 14 15 16 17 18 19 20 21 22 23 24 25 26 27 28 29 30 31 32 33 34 35 36 37 38 39 40 41 42 43 44 45 46 47 48 49 50
000
ASUS45 KBOU 231507
RWRCO

WEATHER ROUNDUP FOR COLORADO
NATIONAL WEATHER SERVICE DENVER/BOULDER CO
900 AM MDT SAT AUG 23 2014

NOTE: "FAIR" INDICATES FEW OR NO CLOUDS BELOW 12000 FEET WITH NO
SIGNIFICANT WEATHER AND/OR OBSTRUCTIONS TO VISIBILITY.

COZ001>005-013-030-031-231600-
...NORTHWEST COLORADO...

CITY           SKY/WX    TMP DP  RH WIND       PRES   REMARKS
CRAIG          CLOUDY    53  48  83 NE10      30.08F
HAYDEN         PTSUNNY   48  45  87 E10       30.09F
MEEKER         LGT RAIN  52  47  83 NE3       30.10F
MOUNT WERNER   NOT AVBL
STEAMBOAT SPGS   N/A     48  45  88 E5        30.13S
WALDEN         CLOUDY    50  41  71 SE10      30.13F
$$

COZ006>008-011-231600-
...WEST CENTRAL VALLEYS...

CITY           SKY/WX    TMP DP  RH WIND       PRES   REMARKS
GRAND JUNCTION LGT RAIN  55  55 100 CALM      30.06R
MONTROSE       PTSUNNY   59  53  80 CALM      30.11S
EAGLE          LGT RAIN  54  52  94 CALM      30.16S
RIFLE          LGT RAIN  53  51  93 CALM      30.12R
DELTA          CLOUDY    62  56  80 CALM      30.08S
NUCLA          CLOUDY    61  52  72 SW8       30.15R
$$

COZ017>023-064>068-231600-
...SOUTHWEST COLORADO...

CITY           SKY/WX    TMP DP  RH WIND       PRES   REMARKS
DURANGO        PTSUNNY   55  50  83 CALM      30.22S
CORTEZ         SUNNY     65  52  62 S9        30.16S
PAGOSA SPRINGS CLOUDY    54  48  81 CALM      30.27S
TELLURIDE      MOSUNNY   57  43  58 E5        30.27S
WOLF CREEK PAS NOT AVBL
$$

COZ009-010-012-014-032>034-037-058>063-231600-
...CENTRAL COLORADO...

CITY           SKY/WX    TMP DP  RH WIND       PRES   REMARKS
ASPEN          LGT RAIN  50  47  89 VRB3      30.17F
BUENA VISTA    MOSUNNY   56  44  63 E3        30.17F
COPPER MTN     LGT RAIN  45  37  76 SW3       30.38S
BERTHOUD PASS  MIX PCPN  34  32  93 NW16G24   30.39R VSB<1/4 WCI  23
COTTONWOOD PAS PTSUNNY   55  39  54 N5        30.26F
GUNNISON       PTSUNNY   52  46  82 CALM      30.23R
KREMMLING      CLOUDY    52  43  71 CALM      30.18S
LEADVILLE      PTSUNNY   48  40  73 NW8       30.26S
MONARCH PASS   FOG       37  36  93 W20G28    30.48F VSB<1/4
SALIDA         MOSUNNY   63  44  49 S17G23    30.22S
SUNLIGHT       DRIZZLE   43  43 100 CALM      30.31F
WILKERSON PASS NOT AVBL
$$

COZ069>075-231600-
...SAN LUIS VALLEY/SANGRE DE CRISTO MOUNTAINS...

CITY           SKY/WX    TMP DP  RH WIND       PRES   REMARKS
ALAMOSA        MOSUNNY   54  49  83 E6        30.21S
LA VETA PASS   NOT AVBL
SAGUACHE       CLOUDY    54  46  76 W3        30.23S
$$

COZ035-036-038>040-231600-
...NORTHERN COLORADO FRONT RANGE...

CITY           SKY/WX    TMP DP  RH WIND       PRES   REMARKS
DENVER INTL AP MOSUNNY   65  57  75 NW5       29.97F
DMNS CITY PARK   N/A     65  54  67 W2        29.97S
AURORA         NOT AVBL
FRONT RANGE AP NOT AVBL
ERIE MUNI ARPT CLOUDY    60  60  99 NE3       29.96S FOG
BOULDER MUN AP MOSUNNY   63  59  88 E3        29.96S
CENTENNIAL     MOSUNNY   62  52  69 W3        29.99S
BROOMFIELD     PTSUNNY   63  59  88 N3        29.99S
FORT COLLINS   MOSUNNY   64  57  77 CALM      29.97S
LONGMONT       PTSUNNY   66  59  78 CALM      29.97S HAZE
$$

COZ041-046-047-076>085-087-088-231600-
...PIKES PEAK/PALMER DIVIDE AND SOUTHERN FOOTHILLS...

CITY           SKY/WX    TMP DP  RH WIND       PRES   REMARKS
COLO. SPRINGS  MOSUNNY   63  54  72 CALM      30.03S
A. F. ACADEMY  SUNNY     63  52  67 VRB6      30.03S
ELLICOTT       MOSUNNY   61  55  82 W3        30.01S
FALCON         SUNNY     65  54  68 S3        30.06S
FORT CARSON    MOSUNNY   61  55  82 E1        30.01S
LIMON          SUNNY     63  59  87 W3        29.96F
MONUMENT HILL  SUNNY     63  45  51 W8        30.05S
TRINIDAD       SUNNY     69  48  47 SW17      30.03S
$$

COZ042>045-048>051-090-091-231600-
...NORTHEAST COLORADO...

CITY           SKY/WX    TMP DP  RH WIND       PRES   REMARKS
GREELEY ARPT   MOSUNNY   66  55  68 S5        29.95F
AKRON          CLOUDY    65  58  78 NW10      29.94R
BURLINGTON     SUNNY     68  62  81 CALM      29.92R
WRAY             N/A     69  65  86 CALM      29.89S
STERLING       PTSUNNY   70  63  78 NW8       29.91S
HOLYOKE        NOT AVBL
FORT MORGAN    PTSUNNY   65  56  73 NW5       29.93F
$$

COZ086-089-092>099-231600-
...SOUTHEAST COLORADO...

CITY           SKY/WX    TMP DP  RH WIND       PRES   REMARKS
PUEBLO         SUNNY     66  54  65 SW7       29.95F
LA JUNTA       SUNNY     70  56  61 SW12      29.93F
LAMAR          SUNNY     72  57  59 W12       29.89F
SPRINGFIELD      N/A     73  52  47 SW10G18   29.95F
$$


USA.gov is the U.S. government's official web portal to all federal, state and local government web resources and services.